Location: George Washington National Forest Helicopter Landing Site
(38.6463°N, 79.0851°W)
Time: 23:56:40
(UTC-04:00)

Tiros 1 despin weight - Pass Details

Date: 24 August 2019
Orbit: 594 x 642 km, 48.2° (Epoch: 19 September)

Event Time Altitude Azimuth Distance (km) Brightness Sun altitude
Rises 05:04:00 0° 304° (WNW) 2,872 - -17.7°
Exits shadow 05:05:25 - 306° (NW) 2,325 ? -17.5°
Reaches altitude 10° 05:06:21 10° 309° (NW) 1,973 ? -17.3°
Maximum altitude 05:10:47 51° 26° (NNE) 785 ? -16.6°
Drops below altitude 10° 05:15:16 10° 102° (ESE) 1,997 ? -15.8°
Sets 05:17:39 0° 108° (ESE) 2,910 ? -15.4°
